Regional Weather Roundup
Issued by NWS

Home | Current Version | Previous Version | Text Only | Print | Product List | Glossary Off
Versions: 1 2 3 4 5 6 7 8 9 10 11 12 13 14 15 16 17 18 19 20 21 22 23 24 25 26 27 28 29 30 31 32 33 34 35 36 37 38 39 40 41 42 43 44 45 46 47 48 49 50

447
ASUS43 KMPX 242301
RWRMN
WEATHER ROUNDUP FOR MINNESOTA
NATIONAL WEATHER SERVICE TWIN CITIES/CHANHASSEN MN
500 PM CST FRI FEB 24 2017


NOTE: "FAIR" INDICATES FEW OR NO CLOUDS BELOW 12,000 FEET WITH NO
SIGNIFICANT WEATHER AND/OR OBSTRUCTIONS TO VISIBILITY. N/A MEANS
CURRENT SKY AND/OR WEATHER CONDITIONS ARE NOT AVAILABLE.

MNZ060>063-068>070-250000-
   Twin Cities Metro

CITY           SKY/WX    TMP DP  RH WIND       PRES   REMARKS
TWIN CITIES    CLOUDY    26  11  52 N21G26    29.83R WCI  12
ST PAUL        CLOUDY    26  13  57 N20G26    29.84R WCI  12
CRYSTAL        MOCLDY    26  11  52 N15G24    29.83R WCI  14
BLAINE         MOCLDY    27  14  59 N17G25    29.84R WCI  14
LAKEVILLE      CLOUDY    25  16  68 N14G21    29.81R WCI  13
EDEN PRAIRIE   PTCLDY    26  12  55 N13G25    29.82R WCI  15
SOUTH ST PAUL  CLOUDY    26  13  57 N16G25    29.82R WCI  14
LAKE ELMO      MOCLDY    27  16  63 N14G22    29.82S WCI  15
$$
MNZ001>005-007-008-013>017-022>024-027-028-250000-
   Northwest Minnesota

CITY           SKY/WX    TMP DP  RH WIND       PRES   REMARKS
BEMIDJI        CLEAR     20   7  56 NW17G23   29.96S WCI   5
HALLOCK        CLEAR     18  10  73 N10       30.12S WCI   6
ROSEAU         CLEAR     19   9  63 NW12      30.04S WCI   7
WARROAD        CLEAR     19   7  58 NW16      30.03S WCI   5
THIEF RVR FALL CLEAR     19  12  74 NW18      30.07S WCI   4
CROOKSTON      CLEAR     19  12  73 N20       30.10S WCI   4
FOSSTON        CLEAR     21  10  63 NW17      30.03S WCI   7
DETROIT LAKES  MOCLDY    23  14  68 N9G23     30.00S WCI  13
MOORHEAD       CLOUDY    21  16  79 N20G28    30.08S WCI   6
PARK RAPIDS    CLEAR     22   6  50 N17G28    29.93F WCI   8
MAHNOMEN       MOCLDY    21  13  70 N21       30.02S WCI   5
$$
MNZ006-009>011-018-025>026-250000-
   North Central Minnesota

CITY           SKY/WX    TMP DP  RH WIND       PRES   REMARKS
BAUDETTE       CLEAR     17   3  54 N10       29.99F WCI   5
FLAG ISLAND    CLEAR     18   1  49 N15       30.02S WCI   3
INTL FALLS     CLOUDY    19   4  51 N9        29.95F WCI   8
WASKISH        MOCLDY    19   7  58 NW8       29.98F WCI   9
BIG FORK       CLEAR     21   5  49 N7        29.93S WCI  13
LONGVILLE      CLEAR     19   7  58 NW6       29.93S WCI  11
GRAND RAPIDS   CLEAR     20   7  57 N14       29.92S WCI   7
CRANE LAKE     CLEAR     18   3  53 N9        29.95S WCI   6
ORR            CLEAR     18   1  49 CALM      29.90S
COOK           CLEAR     19   3  49 NW6       29.91S WCI  11
WALKER         FAIR      21   6  52 NW13G20   29.93F WCI   8
$$
MNZ012-019>021-037-250000-
   Northeast Minnesota

CITY           SKY/WX    TMP DP  RH WIND       PRES   REMARKS
DULUTH         CLOUDY    20   9  62 N13       29.84S WCI   7
ELY            CLEAR     18   1  49 NE5       29.87F WCI  11
HIBBING        CLEAR     19   5  54 N13       29.88S WCI   6
EVELETH        CLEAR     20  -2  38 N8G17     29.88F WCI  10
DULUTH HARBOR  CLOUDY    25  14  63 N16       29.90S WCI  12
TWO HARBORS    CLEAR     23  10  58 N7        29.85S WCI  15
SILVER BAY     CLOUDY    19   5  53 N5        29.85S WCI  13
GRAND MARAIS     N/A     21   3  45 NE5       29.90S WCI  15
G MARAIS ARPRT CLOUDY    12  -2  52 NW9G16    29.81S WCI   0
$$
MNZ029>031-032-039>041-046>048-054>057-064-250000-
   West Central Minnesota

CITY           SKY/WX    TMP DP  RH WIND       PRES   REMARKS
FERGUS FALLS   MOCLDY    21  14  73 N24G33    30.05R WCI   4
WHEATON        CLOUDY    23  14  68 NW21G29   30.05R WCI   8
MORRIS         CLOUDY    25  16  68 N26G33    29.96S WCI   9
ALEXANDRIA     CLEAR     24  11  57 N20       29.93R WCI  10
ELBOW LAKE     MOCLDY    23  13  67 N20G29    29.99R WCI   8
WADENA         CLEAR     23   9  54 N23G29    29.93S WCI   7
GLENWOOD       CLEAR     27  12  54 N22       29.92R WCI  12
APPLETON       CLOUDY    27  16  63 N28G35    29.97R WCI  11
BENSON         CLOUDY    28  10  47 NE18G31   29.96R WCI  16
ORTONVILLE     CLOUDY    25  16  68 N22G30    29.99S WCI  10
MADISON        CLOUDY    28  18  64 N26G38    29.98R WCI  13
WILLMAR        FAIR      28  14  54 N21G30    29.92R WCI  15
$$
MNZ033>034-036-042>043-049>051-058-059-250000-
   Central Minnesota

CITY           SKY/WX    TMP DP  RH WIND       PRES   REMARKS
ST CLOUD       PTCLDY    24  11  57 N16G26    29.88R WCI  11
SAUK CENTRE    FAIR      25   9  51 N18G24    29.91S WCI  11
PAYNESVILLE    PTCLDY    26   9  48 N20G26    29.90R WCI  13
AITKIN         CLEAR     25   9  50 N18       29.88S WCI  11
PINE RIVER     CLEAR     21   9  58 N17       29.96R WCI   7
BRAINERD       CLEAR     21   8  57 N17G28    29.91S WCI   7
STAPLES        CLEAR     21   9  58 N16       29.92S WCI   7
LONG PRAIRIE   FAIR      25   9  50 NW16G23   29.91S WCI  12
LITTLE FALLS   PTCLDY    25   7  46 N9G18     29.91R WCI  15
LITCHFIELD     MOCLDY    27  12  54 N20G28    29.88R WCI  13
BUFFALO        PTCLDY    27  13  56 NW20      29.87R WCI  13
MAPLE LAKE     PTCLDY    25  15  63 N20G26    29.88R WCI  11
HUTCHINSON     CLEAR     27  14  56 N21G31    29.87R WCI  14
$$
MNZ037-044-045-052-053-250000-
   East Central Minnesota

CITY           SKY/WX    TMP DP  RH WIND       PRES   REMARKS
PRINCETON      CLOUDY    25  10  54 NW22G32   29.87R WCI  10
MORA           MOCLDY    25  12  58 N14G21    29.89R WCI  13
CAMBRIDGE      PTCLDY    27  14  59 NW17G23   29.84S WCI  14
RUSH CITY      CLOUDY    23  12  63 VRB16G24  29.86R WCI  10
MOOSE LAKE     MOCLDY    23  10  58 N8G16     29.86S WCI  14
HINCKLEY       MOCLDY    25  12  58 N13G23    29.86S WCI  13
CLOQUET        CLOUDY    19   9  63 N10G23    29.86S WCI   8
MCGREGOR       CLEAR     23  12  63 N15       29.89S WCI  10
$$
MNZ071>073-080-081-089-090-097-098-250000-
   Southwest Minnesota

CITY           SKY/WX    TMP DP  RH WIND       PRES   REMARKS
MONTEVIDEO     CLOUDY    27  16  63 N23G35    29.96R WCI  12
GRANITE FALLS  CLOUDY    28  16  59 NW23G31   29.94S WCI  14
CANBY          CLOUDY    27  17  65 NW22G30   29.98R WCI  12
MARSHALL       CLOUDY    26  15  63 N26G38    29.92S WCI  10
REDWOOD FALLS  PTCLDY    28  11  48 N17G29    29.89R WCI  16
OLIVIA         MOCLDY    30  14  51 N20G28    29.89R WCI  18
PIPESTONE      CLOUDY    25  12  58 N18G29    29.91R WCI  11
WINDOM         CLOUDY    25  16  68 N31G37    29.85R WCI   8
WORTHINGTON    MOSUNNY   23  17  78 N25G31    29.87R HAZE    WCI   7
JACKSON        CLOUDY    23  18  80 N18G32    29.83S HAZE    WCI   9
TRACY          CLOUDY    27  17  65 N28G35    29.90R WCI  12
SLAYTON        CLOUDY    24  16  72 N25G36    29.89R WCI   7
$$
MNZ065>067-074>077-082>085-091>093-250000-
   South Central Minnesota

CITY           SKY/WX    TMP DP  RH WIND       PRES   REMARKS
MANKATO          N/A     25  15  66 N23       29.83R WCI  10
NEW ULM        CLOUDY    27  12  54 N20G26    29.84R WCI  13
ST JAMES       CLOUDY    25  18  74 NW25G31   29.86R HAZE    WCI   9
FAIRMONT       CLOUDY    24  16  71 N15       29.83R WCI  11
GLENCOE        PTCLDY    28  17  64 N17G25    29.85R WCI  15
FARIBAULT      CLOUDY    25  16  68 N12G22    29.80R WCI  14
OWATONNA       CLOUDY    25  18  74 N17       29.78R WCI  11
WASECA         CLOUDY    23  18  80 N22       29.81R WCI   8
ALBERT LEA     LGT SNOW  23  21  93 N13G20    29.77R WCI  11
$$
MNZ078>079-086>088-094>096-250000-
   Southeast Minnesota

CITY           SKY/WX    TMP DP  RH WIND       PRES   REMARKS
ROCHESTER      FOG       22  20  92 N25G31    29.72R VSB 1   WCI   5
RED WING       LGT SNOW  25  18  74 N10G16    29.79R VSB 1   WCI  15
STANTON        CLOUDY    26  16  68 N15       29.79R WCI  13
WINONA         LGT SNOW  28  23  80 N10G18    29.73S WCI  19
AUSTIN           N/A     21  19  93 N17G29    29.75R WCI   7
PRESTON        CLOUDY    22  19  89 N17G25    29.70R WCI   8
$$
ABBREVIATIONS USED IN REMARKS
   TC - TEMPERATURES IN CELSIUS
  WCI - WIND CHILL INDEX
   HX - HEAT INDEX
  VSB - VISIBILITY
$$




USA.gov is the U.S. government's official web portal to all federal, state and local government web resources and services.